Wind_Speed
13 14 15 17 20 22 24 26 28 29 31 33 36 39 42 45 46 48 50 51 51 50 48 47 48 50 52 55 56 58 59 60 60 60 59 57 55 53 51 50 49 48 48 48
15 16 17 20 22 24 26 28 29 31 33 35 38 42 45 47 49 50 51 51 50 48 47 48 50 52 55 56 58 60 61 61 60 58 57 55 54 51 50 49 49 49 48 48
17 18 19 21 24 26 27 29 31 33 36 37 39 43 46 48 50 51 51 51 49 47 48 50 52 55 57 58 60 61 59 58 57 57 55 54 52 50 48 46 46 47 47 47
18 20 21 24 26 27 28 30 32 35 38 40 42 44 48 50 51 51 51 50 48 47 48 51 54 56 57 58 59 59 58 58 56 55 52 49 47 46 44 43 43 44 45 45
20 22 23 25 27 29 31 31 34 37 40 42 44 44 46 49 49 50 51 49 48 48 50 52 55 56 56 56 57 57 57 55 53 51 47 44 42 39 38 38 39 40 42 43
22 24 26 26 28 30 32 33 36 39 42 44 47 47 47 49 49 51 51 49 47 48 50 53 55 56 55 55 55 55 55 52 49 45 41 39 35 33 31 32 33 36 40 41
23 24 25 26 28 31 33 35 38 40 43 46 48 50 51 52 52 53 52 48 46 48 51 54 55 55 54 54 54 53 51 49 45 41 38 34 30 27 26 27 29 32 36 38
23 24 25 27 28 30 32 34 37 40 43 45 48 50 51 52 52 53 51 47 46 47 51 53 54 53 52 52 51 50 49 47 43 38 34 30 25 21 20 21 23 26 30 33
23 24 26 27 29 30 32 35 38 40 43 46 49 50 51 52 51 52 51 47 45 47 50 52 53 53 51 50 49 48 46 44 40 36 32 28 22 17 14 14 17 21 25 28
22 23 25 27 28 31 33 36 38 41 44 47 49 51 52 52 51 51 51 46 44 46 49 51 52 52 50 49 48 46 44 42 38 35 31 27 21 15 9 7 11 16 21 24
21 24 26 27 29 32 34 36 38 41 44 47 49 51 52 52 51 51 50 46 44 45 47 49 51 51 49 47 46 45 43 41 37 34 30 26 21 15 9 3 5 11 16 20
23 25 27 29 31 32 34 36 38 41 44 47 49 50 51 52 51 50 49 46 44 44 46 48 49 49 48 46 45 43 41 39 37 34 30 26 22 17 12 6 2 8 12 16
24 26 28 29 31 32 33 35 38 40 43 45 48 50 51 51 51 50 48 45 43 43 44 46 47 48 47 45 44 42 40 38 36 34 30 26 22 18 14 8 3 4 9 12
25 27 28 29 31 32 33 35 38 40 43 45 47 49 50 51 51 49 47 44 42 41 42 43 44 45 45 45 43 41 39 37 35 33 31 27 23 19 15 10 6 4 6 9
26 28 29 30 31 32 33 35 38 41 43 45 47 48 49 50 50 49 47 44 42 40 40 41 42 43 43 43 42 41 39 37 35 32 30 27 24 20 16 11 8 6 5 7
27 28 28 30 31 33 34 36 38 41 43 44 45 47 48 49 49 48 47 45 41 39 38 38 39 40 41 41 41 40 39 37 34 32 30 27 25 21 18 14 10 7 6 7
28 28 29 30 32 34 35 37 39 41 43 45 45 46 47 47 47 47 46 44 41 38 37 36 37 38 39 39 39 39 38 36 34 32 30 28 25 22 19 15 12 8 7 7
29 29 31 32 34 35 37 38 39 41 43 44 45 45 46 46 46 45 44 42 40 37 35 34 34 35 36 37 37 37 36 35 33 31 30 28 26 24 20 17 15 13 12 11
32 32 33 34 35 36 38 39 40 42 43 44 44 45 45 46 46 45 44 41 38 35 33 31 31 32 33 34 34 34 34 33 33 31 30 29 28 26 22 20 18 17 16 15
35 35 36 36 37 38 38 39 41 41 42 43 43 44 44 44 44 43 43 41 38 35 32 30 29 28 29 31 31 32 32 32 32 31 30 29 28 27 25 23 22 21 20 18
37 37 37 37 38 38 38 39 40 41 41 41 42 42 42 42 42 41 41 39 37 35 31 28 26 25 26 27 27 28 29 29 29 30 30 29 27 26 26 25 25 24 24 23
38 38 38 38 38 38 38 39 39 39 40 41 42 42 41 41 41 41 39 38 36 33 30 27 24 22 22 23 24 24 25 26 26 27 28 27 26 26 25 25 26 26 26 26
40 39 38 38 37 37 38 38 38 39 40 41 42 41 40 39 38 38 37 36 34 32 30 26 23 20 19 19 20 21 21 22 23 23 24 24 24 24 24 24 24 25 25 25
40 39 38 37 37 37 38 37 38 39 40 41 41 40 39 38 38 37 35 34 32 31 29 26 22 19 17 16 16 17 17 18 19 20 20 20 21 21 21 21 21 21 22 23
40 39 38 37 37 37 37 37 39 40 41 41 41 40 38 37 36 35 34 33 31 30 28 25 22 18 15 13 12 13 13 14 14 15 16 16 17 17 18 19 19 19 20 20
42 41 39 38 38 40 39 40 41 41 41 41 40 39 37 36 35 34 33 31 30 28 26 25 21 18 15 12 10 10 9 9 10 10 11 11 12 12 13 14 15 16 16 16
43 41 40 41 41 41 42 43 43 41 40 39 38 37 36 35 34 33 32 30 28 26 25 23 21 17 14 12 10 9 7 6 6 6 6 7 7 8 9 9 10 11 12 12
Wind_Direction
334 337 337 339 340 341 341 338 334 334 334 334 332 331 329 328 328 327 326 324 323 321 320 319 318 316 314 312 310 308 306 304 302 298 294 290 286 281 275 269 264 259 256 253
332 336 338 339 339 341 341 338 337 337 338 337 336 334 332 332 331 330 329 328 326 324 323 321 320 318 316 314 312 310 309 306 304 301 296 291 286 281 275 267 261 257 252 249
330 334 335 336 338 340 341 340 340 341 340 340 339 337 335 334 333 333 332 331 329 327 325 324 322 321 319 317 315 314 312 309 306 302 298 293 288 281 274 266 260 255 249 246
327 332 336 336 337 339 342 342 342 341 341 342 342 341 337 336 335 335 335 333 332 330 328 327 325 324 323 321 320 318 315 313 310 306 301 295 290 282 273 264 256 251 246 243
327 333 335 335 336 338 341 343 342 343 344 344 343 343 339 337 337 337 337 336 335 334 332 330 329 328 327 325 325 323 321 318 314 310 304 299 293 283 272 263 255 249 242 239
327 332 333 334 335 337 339 341 342 344 345 345 344 343 343 341 341 341 339 338 337 336 334 333 333 333 331 330 329 328 327 325 321 316 311 306 297 285 272 262 254 246 238 235
325 328 330 331 333 336 338 341 342 344 345 345 345 345 345 345 344 343 341 339 338 337 336 336 337 337 335 334 334 334 334 333 330 326 321 315 305 291 276 264 253 243 234 230
323 327 329 330 332 334 336 339 341 343 344 345 346 347 346 346 345 344 343 340 338 339 339 340 340 340 340 340 340 340 340 340 338 336 332 326 315 299 282 265 250 238 228 225
323 325 327 329 330 332 334 337 339 342 344 346 347 348 348 347 347 345 344 342 340 341 341 343 344 344 345 346 346 346 346 347 347 346 343 340 333 318 293 264 243 231 223 220
320 322 324 327 329 331 334 336 338 341 344 347 349 349 349 348 347 347 346 344 343 343 344 346 347 349 349 350 351 352 353 354 354 354 354 353 352 346 327 276 233 221 217 217
318 321 325 328 330 332 333 335 338 341 344 347 349 350 349 349 348 348 348 347 345 345 347 349 351 352 354 354 355 356 357 359 360 360 1 2 5 6 4 344 213 208 209 211
319 323 326 329 330 332 333 335 337 341 343 346 348 350 350 350 349 349 349 348 347 347 349 351 354 355 357 358 359 360 1 3 4 6 7 9 11 14 14 12 215 203 204 205
319 323 326 328 329 330 331 334 337 340 342 345 347 349 350 350 350 350 349 349 348 349 351 354 356 358 360 1 2 3 5 7 8 10 11 13 15 17 19 25 44 181 192 196
319 322 323 325 326 328 331 334 336 339 342 344 347 349 349 350 350 350 350 349 350 351 353 355 357 360 2 4 5 6 8 10 11 13 14 17 20 21 25 33 51 114 165 181
316 319 320 322 324 327 330 333 335 338 341 343 345 347 349 350 350 350 351 351 351 352 353 355 358 360 2 5 8 9 11 13 15 17 19 21 23 26 33 43 58 89 132 161
314 316 318 320 322 325 328 331 334 336 338 340 343 346 347 349 350 350 351 351 351 352 353 356 358 1 3 6 9 11 14 16 19 21 23 25 27 30 36 43 54 74 108 142
311 314 316 318 320 323 326 328 331 333 335 337 341 344 346 349 350 350 350 351 351 352 354 356 358 1 3 6 9 12 15 17 20 23 27 31 33 35 38 44 56 71 95 116
309 312 313 315 318 320 322 325 327 329 332 335 338 342 345 347 349 350 351 351 351 351 353 355 358 1 3 7 10 13 17 20 23 27 30 33 36 39 43 49 58 71 89 105
305 308 309 311 314 316 318 321 323 326 329 333 336 340 343 345 347 348 350 351 351 351 353 355 358 1 4 8 11 15 19 23 27 30 33 36 40 44 50 55 60 69 85 99
300 303 306 308 310 312 314 317 321 324 327 330 334 337 340 343 346 347 347 349 350 351 352 354 357 0 4 8 12 17 22 26 29 31 34 37 41 46 53 60 67 73 82 93
297 300 302 305 307 308 311 315 319 322 325 329 332 335 338 341 343 345 346 347 349 349 350 351 354 357 1 6 13 18 23 27 30 33 35 38 43 49 56 64 70 76 83 91
294 297 300 302 303 305 309 313 317 320 324 328 331 333 336 339 341 342 344 345 347 348 348 349 350 353 358 4 11 17 22 27 31 34 39 44 49 53 59 66 72 78 83 88
294 296 298 300 300 302 307 311 314 318 322 326 329 331 333 335 338 340 341 343 345 346 346 346 346 348 353 0 7 14 19 25 31 36 41 48 53 57 62 68 74 79 84 90
291 293 295 297 298 300 304 309 313 316 320 324 326 329 331 333 335 337 339 340 342 343 344 344 343 344 347 354 2 10 17 23 29 36 42 49 55 60 65 71 77 81 87 92
288 290 292 293 294 297 300 305 310 314 317 321 323 325 328 330 333 334 335 337 339 340 341 342 341 340 341 344 352 0 10 20 27 33 40 48 54 60 67 73 78 83 88 93
287 288 287 287 289 293 297 303 308 312 316 318 320 322 325 328 330 332 332 333 335 337 338 339 339 337 334 333 336 344 353 7 19 29 36 45 53 59 67 74 80 84 90 97
283 284 284 284 288 291 295 299 304 308 312 315 317 320 322 325 327 328 329 330 331 333 335 336 336 334 328 323 323 327 332 344 360 16 34 45 54 62 71 80 86 90 95 101
Height
5841 5839 5836 5832 5829 5825 5821 5817 5812 5807 5801 5795 5788 5780 5772 5764 5756 5747 5737 5727 5717 5707 5698 5689 5681 5673 5664 5655 5646 5637 5629 5621 5613 5606 5601 5596 5594 5592 5591 5591 5593 5594 5597 5600
5839 5836 5833 5829 5826 5822 5818 5813 5808 5803 5797 5790 5782 5773 5764 5755 5746 5737 5727 5717 5707 5697 5687 5679 5670 5661 5652 5641 5631 5621 5611 5602 5593 5585 5579 5574 5571 5569 5568 5569 5571 5574 5577 5581
5836 5833 5830 5827 5823 5818 5815 5809 5803 5797 5792 5784 5777 5767 5756 5747 5738 5727 5717 5707 5697 5687 5678 5668 5659 5649 5638 5627 5615 5604 5593 5583 5573 5565 5558 5552 5548 5546 5546 5547 5549 5553 5557 5562
5833 5831 5826 5825 5819 5815 5810 5805 5799 5793 5786 5778 5771 5762 5750 5739 5729 5719 5708 5698 5688 5678 5668 5658 5648 5637 5625 5613 5600 5588 5577 5565 5554 5545 5537 5531 5527 5525 5525 5526 5529 5534 5539 5545
5830 5826 5823 5819 5814 5809 5805 5801 5794 5787 5780 5772 5764 5757 5747 5735 5724 5712 5701 5689 5679 5669 5659 5649 5638 5626 5613 5600 5587 5574 5561 5549 5537 5526 5518 5512 5508 5505 5505 5507 5511 5515 5521 5528
5826 5822 5819 5816 5811 5805 5801 5796 5789 5782 5774 5766 5757 5749 5740 5728 5716 5704 5693 5682 5672 5662 5652 5641 5629 5616 5603 5590 5577 5563 5549 5535 5523 5512 5503 5497 5492 5489 5489 5491 5495 5499 5506 5513
5823 5819 5816 5812 5807 5802 5798 5792 5784 5777 5769 5761 5751 5740 5730 5719 5707 5697 5686 5675 5666 5656 5645 5633 5621 5608 5595 5581 5567 5553 5539 5525 5512 5501 5492 5485 5480 5477 5476 5478 5481 5486 5492 5500
5819 5815 5814 5808 5803 5799 5794 5787 5780 5773 5765 5756 5747 5736 5725 5714 5702 5691 5681 5670 5660 5650 5639 5627 5614 5601 5588 5574 5560 5546 5532 5518 5506 5495 5485 5477 5472 5468 5467 5468 5471 5475 5482 5490
5815 5813 5808 5804 5799 5795 5789 5783 5776 5769 5760 5751 5741 5731 5720 5709 5697 5687 5676 5665 5655 5645 5634 5622 5609 5595 5582 5569 5555 5541 5528 5515 5502 5492 5482 5474 5468 5463 5462 5462 5465 5469 5475 5483
5811 5808 5804 5800 5795 5790 5784 5778 5771 5763 5755 5746 5736 5725 5715 5704 5693 5683 5672 5660 5651 5641 5630 5618 5605 5591 5578 5565 5551 5538 5525 5513 5502 5491 5482 5474 5467 5463 5460 5459 5462 5466 5471 5478
5807 5804 5800 5796 5790 5785 5779 5773 5766 5758 5749 5740 5731 5721 5711 5700 5689 5679 5668 5657 5647 5637 5626 5614 5602 5589 5576 5563 5550 5538 5525 5514 5503 5493 5484 5476 5470 5465 5463 5462 5463 5466 5470 5475
5803 5799 5795 5791 5785 5780 5774 5768 5761 5753 5745 5736 5727 5718 5707 5696 5686 5675 5664 5654 5644 5634 5623 5612 5600 5587 5575 5563 5550 5538 5527 5516 5505 5496 5487 5480 5474 5470 5466 5465 5465 5467 5470 5474
5798 5794 5790 5785 5780 5775 5770 5763 5756 5749 5741 5733 5723 5713 5703 5693 5683 5672 5661 5651 5641 5631 5621 5610 5599 5587 5575 5564 5552 5540 5529 5519 5509 5500 5491 5484 5478 5474 5470 5469 5468 5469 5471 5474
5792 5789 5785 5780 5776 5771 5765 5759 5752 5745 5737 5728 5719 5710 5700 5690 5680 5670 5659 5649 5639 5629 5619 5609 5599 5588 5577 5565 5554 5543 5532 5522 5513 5504 5496 5489 5483 5478 5475 5472 5471 5472 5473 5475
5787 5784 5780 5776 5771 5766 5760 5754 5747 5740 5732 5724 5716 5707 5697 5688 5678 5667 5657 5647 5637 5628 5619 5610 5600 5590 5579 5568 5557 5547 5536 5527 5517 5509 5501 5495 5488 5483 5480 5477 5476 5475 5476 5478
5782 5779 5775 5771 5766 5761 5755 5749 5743 5736 5728 5721 5713 5704 5695 5685 5675 5664 5654 5645 5636 5627 5619 5610 5600 5591 5582 5571 5561 5551 5541 5532 5523 5515 5507 5501 5494 5489 5485 5482 5481 5480 5480 5481
5777 5773 5769 5765 5760 5755 5750 5744 5738 5731 5724 5717 5709 5700 5692 5682 5673 5663 5653 5644 5635 5626 5618 5610 5602 5593 5584 5575 5565 5556 5547 5538 5529 5521 5514 5507 5501 5495 5491 5488 5485 5484 5484 5485
5770 5767 5763 5759 5754 5749 5744 5738 5732 5726 5719 5712 5704 5696 5688 5679 5670 5662 5653 5643 5634 5626 5618 5610 5603 5595 5587 5579 5570 5561 5552 5544 5536 5528 5521 5514 5508 5502 5497 5494 5491 5490 5489 5490
5763 5760 5756 5752 5747 5742 5737 5732 5726 5720 5714 5707 5699 5691 5684 5675 5667 5658 5650 5642 5634 5626 5619 5611 5604 5597 5590 5582 5574 5566 5558 5550 5543 5536 5529 5522 5516 5510 5505 5501 5499 5496 5496 5496
5755 5752 5748 5744 5739 5735 5730 5725 5720 5714 5708 5701 5694 5687 5679 5672 5665 5656 5648 5640 5633 5625 5618 5612 5605 5600 5593 5586 5579 5572 5564 5557 5550 5543 5537 5531 5525 5520 5514 5510 5508 5505 5504 5504
5746 5742 5739 5735 5731 5727 5723 5718 5713 5708 5702 5696 5689 5682 5675 5668 5661 5654 5647 5639 5632 5624 5618 5612 5606 5601 5596 5590 5583 5577 5570 5564 5558 5552 5546 5540 5535 5530 5525 5521 5518 5516 5515 5514
5736 5733 5729 5726 5722 5719 5715 5711 5706 5701 5696 5690 5684 5677 5671 5664 5657 5650 5644 5638 5631 5624 5618 5612 5607 5602 5597 5592 5587 5581 5576 5570 5565 5560 5555 5549 5544 5540 5536 5533 5530 5528 5527 5526
5725 5722 5720 5717 5714 5710 5706 5702 5698 5694 5689 5684 5678 5672 5666 5660 5655 5648 5642 5635 5629 5623 5617 5611 5606 5602 5598 5594 5590 5585 5580 5576 5571 5567 5563 5559 5554 5551 5547 5544 5542 5540 5539 5538
5714 5712 5710 5707 5704 5701 5697 5694 5690 5686 5682 5677 5672 5666 5661 5655 5649 5644 5638 5633 5627 5621 5615 5610 5606 5602 5598 5595 5591 5588 5584 5580 5577 5573 5569 5566 5563 5560 5557 5555 5553 5552 5550 5550
5702 5701 5699 5697 5694 5691 5688 5685 5682 5678 5674 5670 5665 5660 5655 5650 5645 5640 5634 5629 5624 5618 5613 5608 5604 5601 5597 5595 5592 5589 5586 5583 5581 5578 5575 5572 5570 5568 5566 5564 5563 5562 5561 5560
5691 5690 5688 5686 5684 5682 5679 5676 5673 5670 5666 5662 5658 5653 5648 5644 5639 5634 5630 5625 5620 5616 5611 5606 5602 5599 5596 5594 5591 5589 5587 5585 5583 5581 5579 5577 5575 5574 5572 5571 5570 5570 5569 5569
5678 5678 5677 5675 5673 5671 5669 5667 5665 5662 5659 5655 5651 5647 5642 5638 5633 5629 5625 5620 5616 5612 5608 5604 5600 5596 5594 5592 5590 5588 5587 5586 5584 5583 5581 5580 5579 5578 5577 5576 5576 5575 5575 5576